OpenBCM V1.13 (Linux)

Packet Radio Mailbox

DB0FHN

[JN59NK Nuernberg]

 Login: GUEST





  
OZ1LQH > KEP      13.11.15 10:04l 80 Lines 3324 Bytes #-3894 (0) @ WW
BID : ARLK087
Read: DK3UZ GUEST DO4SMW
Subj: ARLK087 Keplerian data
Path: DB0FHN<OE2XZR<OE5XBR<OE1XAB<HG8LXL<GB7YEW<PI8CDR<PE1BIV<GB7CIP<ON0AR<
      OZ5BBS
Sent: 151113/0515Z @:OZ5BBS.FYN.DNK.EU #:2912 [Odense] $:ARLK087
From: OZ1LQH@OZ5BBS.FYN.DNK.EU
To  : KEP@WW

ZCZC SK87
QST de W1AW  
Keplerian Bulletin 87  ARLK087
>From ARRL Headquarters
Newington, CT  November 10, 2015
To all radio amateurs 

SB KEP ARL ARLK087
ARLK087 Keplerian data

Special thanks to AMSAT-NA (AMSAT.ORG) for the following Keplerian
data.

Decode 2-line elsets with the following key:
1 AAAAAU 00  0  0 BBBBB.BBBBBBBB  .CCCCCCCC  00000-0  00000-0 0  DDDZ
2 AAAAA EEE.EEEE FFF.FFFF GGGGGGG HHH.HHHH III.IIII JJ.JJJJJJJJKKKKKZ
KEY: A-CATALOGNUM B-EPOCHTIME C-DECAY D-ELSETNUM E-INCLINATION F-RAAN
G-ECCENTRICITY H-ARGPERIGEE I-MNANOM J-MNMOTION K-ORBITNUM Z-CHECKSUM

0 AO-07
1 07530U 74089B   15314.45162365 -.00000029  00000-0  89772-4 0  9998
2 07530 101.5422 285.8606 0012267  19.6103  96.3299 12.53617743875585
0 AO-16
1 20439U 90005D   15314.40633692  .00000111  00000-0  56973-4 0  9996
2 20439  98.5526 248.5256 0011997  88.6283  30.8593 14.32583837347678
0 FO-29
1 24278U 96046B   15314.42647468  .00000018  00000-0  52616-4 0  9996
2 24278  98.5628 263.5745 0351220  51.8690  55.8373 13.53059639949802
0 ISS
1 25544U 98067A   15314.76533670  .00010789  00000-0  16488-3 0  9996
2 25544  51.6444  72.5265 0006657 124.6730  25.1002 15.54961234970848
0 NO-44
1 26931U 01043C   15314.36328611  .00000108  00000-0  73319-4 0  9999
2 26931  67.0497 160.0169 0006614 277.2936  82.7413 14.30357744736708
0 SO-50
1 27607U 02058C   15313.89207583 +.00000739 +00000-0 +12483-3 0  9992
2 27607 064.5537 113.8341 0082509 260.4828 098.6943 14.74912152692641
0 CO-55
1 27844U 03031E   15313.99207325  .00000223  00000-0  12111-3 0  9998
2 27844  98.6955 320.4450 0008802 236.2817 123.7522 14.21869390641156
0 RS-22
1 27939U 03042A   15314.81002287  .00000666  00000-0  12921-3 0  9997
2 27939  97.8583 110.3535 0011985 284.6875  75.3007 14.66209815647678
0 CO-58
1 28895U 05043F   15313.47296179  .00000763  00000-0  15729-3 0  9995
2 28895  97.8211 133.6918 0016653 193.1613 166.9158 14.62964420534835
0 CO-65
1 32785U 08021C   15313.80681383 +.00001289 +00000-0 +14896-3 0  9997
2 32785 097.6320 351.8919 0012140 310.0742 174.1923 14.87178553407798
0 COMPASS 1
1 32787U 08021E   15313.83687297 +.00002206 +00000-0 +22676-3 0  9997
2 32787 097.6343 356.9446 0011565 291.5691 068.4295 14.91284252408160
0 DO-64
1 32789U 08021G   15314.41974804  .00007129  00000-0  55878-3 0  9996
2 32789  97.6379  12.4288 0009085 270.9183 153.1920 15.01248121409019
0 RS-30
1 32953U 08025A   15314.47827072  .00000010  00000-0 -13620-7 0  9999
2 32953  82.5032 243.2547 0019470 118.2418 242.0631 12.43064905338788
0 KKS-1
1 33499U 09002H   15313.88097395 +.00000851 +00000-0 +13528-3 0  9997
2 33499 098.2577 093.8320 0010505 080.7553 072.5638 14.74730486364651
0 AO-73
1 39444U 13066AE  15313.81776871 +.00001522 +00000-0 +19912-3 0  9993
2 39444 097.7138 011.1289 0059891 022.1015 338.2760 14.80600364104372
0 IO-86
1 40931U 15052B   15308.25397330  .00000981  00000-0  47989-4 0  9998
2 40931   5.9915 125.7285 0013420 155.2820 204.7871 14.76367527  5485
0 AO-85
1 40967U 15058D   15309.34512913  .00001833  00000-0  20584-3 0 00315
2 40967 064.7782 207.4152 0217970 273.4912 187.1222 14.74363405003965

Keplerian bulletins are transmitted twice weekly from W1AW.  The
next scheduled transmission of these data will be Friday, November 
13, 2015, at 2330z on Baudot and BPSK31.
NNNN



Read previous mail | Read next mail


 14.07.2026 14:41:48lGo back Go up